Zurück zum Katalog

DELTA 1 DEB

AktivSSO
NORAD 42573·DEBRIS·🇺🇸 United States

Gestartet Nov 6, 1973 von Vandenberg Space Force Base

Loading…

Nächste Überflüge (nächste 24 Stunden)

TLE

AktuellSource: Space-Track

Epoche: Sep 14, 2026, 05:42 UTC

1 42573U 73086HM  26257.23782370  .00000044  00000-0  61230-3 0  9992
2 42573 101.9193 358.9164 0040798 186.6289 201.8915 12.46303264582496

Verfolge DELTA 1 DEB in Echtzeit mit AllMySat

Download on the App Store